Weather History for Caslav, Czech Republic

Change the Weather History Date:

Thursday, April 18, 2013

  Actual Average (LKPR) Record (LKPR)
Temperature  
Mean Temperature 64 °F -  
Max Temperature 77 °F 54 °F 78 °F (2013)
Min Temperature 51 °F 35 °F 30 °F (2008)
Degree Days  
Heating Degree Days 1    
Growing Degree Days 14 (Base 50)    
Moisture  
Dew Point 50 °F    
Average Humidity 63    
Maximum Humidity 94    
Minimum Humidity 32    
Precipitation  
Precipitation 0.00 in - - ()
Sea Level Pressure  
Sea Level Pressure 30.05 in    
Wind  
Wind Speed 5 mph ()    
Max Wind Speed 14 mph    
Max Gust Speed -    
Averages and records for this station are not official NWS values.
T = Trace of Precipitation, MM = Missing Value Source: Averaged Metar Reports

Daily Weather History Graph

Daily Weather History Graph

Search for Another Location

Airport:

Trip Planner

Search our weather history database for the weather conditions in past years. The results will help you decide how hot, cold, wet, or windy it might be!

Date:

Astronomy

Apr. 18, 2013 Rise Set
Actual Time 5:59 AM CEST 7:56 PM CEST
Civil Twilight 5:25 AM CEST 8:31 PM CEST
Nautical Twilight 4:42 AM CEST 9:14 PM CEST
Astronomical Twilight 3:54 AM CEST 10:02 PM CEST
Moon 11:46 AM CEST (4/18) 2:10 AM CEST (4/18)
Length of Visible Light 15h 06m
Length of Day
13h 57m
Waxing Crescent, 49% of the Moon is Illuminated
Apr 18
Waxing Crescent
Apr 18
First Quarter
Apr 25
Full
May 2
Last Quarter
May 10
New

Hourly Weather History & Observations

Time (CEST) Temp. Dew Point Humidity Pressure Visibility Wind Dir Wind Speed Gust Speed Precip Events Conditions
12:00 AM 53.6 °F 48.2 °F 82% 30.15 in - SSE 1.2 mph - N/A   Clear
1:00 AM 53.6 °F 48.2 °F 82% 30.15 in - SE 2.3 mph - N/A   Clear
2:00 AM 51.8 °F 48.2 °F 88% 30.15 in - SSE 2.3 mph - N/A   Clear
3:00 AM 53.6 °F 48.2 °F 82% 30.12 in - SE 4.6 mph - N/A   Clear
4:00 AM 51.8 °F 48.2 °F 88% 30.12 in - South 4.6 mph - N/A   Clear
5:00 AM 51.8 °F 50.0 °F 94% 30.12 in - ESE 2.3 mph - N/A   Clear
6:00 AM 51.8 °F 48.2 °F 88% 30.09 in - SE 5.8 mph - N/A   Clear
7:00 AM 51.8 °F 50.0 °F 94% 30.09 in - SE 4.6 mph - N/A   Clear
8:00 AM 59.0 °F 53.6 °F 82% 30.09 in - SSE 9.2 mph - N/A   Clear
9:00 AM 62.6 °F 51.8 °F 68% 30.09 in - South 5.8 mph - N/A   Clear
10:00 AM 66.2 °F 51.8 °F 60% 30.06 in - SSE 11.5 mph - N/A   Clear
11:00 AM 69.8 °F 51.8 °F 53% 30.06 in - SSE 13.8 mph - N/A   Clear
12:00 PM 71.6 °F 51.8 °F 50% 30.06 in - SSE 11.5 mph - N/A   Clear
1:00 PM 75.2 °F 46.4 °F 36% 30.04 in - South 8.1 mph - N/A   Clear
2:00 PM 75.2 °F 48.2 °F 38% 30.04 in - SSW 6.9 mph - N/A   Clear
3:00 PM 75.2 °F 50.0 °F 41% 30.01 in - South 5.8 mph - N/A   Clear
4:00 PM 77.0 °F 46.4 °F 34% 29.98 in - Variable 8.1 mph - N/A   Clear
5:00 PM 77.0 °F 48.2 °F 36% 29.98 in - SSE 9.2 mph - N/A   Clear
6:00 PM 77.0 °F 44.6 °F 32% 29.98 in - SW 4.6 mph - N/A   Clear
7:00 PM 75.2 °F 51.8 °F 44% 29.95 in - SSE 8.1 mph - N/A   Clear
8:00 PM 71.6 °F 51.8 °F 50% 29.95 in - SSE 9.2 mph - N/A   Clear
9:00 PM 68.0 °F 51.8 °F 56% 29.98 in - South 8.1 mph - N/A   Clear
10:00 PM 68.0 °F 53.6 °F 60% 29.98 in - South 9.2 mph - N/A   Clear
11:00 PM 66.2 °F 55.4 °F 68% 30.01 in - Variable 2.3 mph - N/A   Clear